Tracking 21676 objects as of 29-Oct-2020
HD Live streaming from Space Station
objects crossing your sky now

SL-6 R/B(2)

Track SL-6 R/B(2) now!


NORAD ID: 16533
Int'l Code: 1986-011F
Perigee: 7,568.3 km
Apogee: 32,203.2 km
Inclination: 70.8 °
Period: 705.7 minutes
Semi major axis: 26256 km
RCS: 5.6516 m2 (large)
Launch date: February 1, 1986
Source: Commonwealth of Independent States (former USSR) (CIS)
Launch site: PLESETSK MISSILE AND SPACE COMPLEX (PKMTR)

Note: This is a ROCKET BODY
aabbcc
Your satellite tracking list
Your tracking list is empty




NASA's NSSDC Master Catalog

Two Line Element Set (TLE):
1 16533U 86011F   20303.07893083  .00000061  00000-0  00000+0 0  9996
2 16533  70.8118 209.4098 4691155  62.4056  20.9017  2.04052033242153
Source of the keplerian elements: AFSPC